Date,TemperatureHighF,TemperatureAvgF,TemperatureLowF,DewpointHighF,DewpointAvgF,DewpointLowF,HumidityHigh,HumidityAvg,HumidityLow,PressureMaxIn,PressureMinIn,WindSpeedMaxMPH,WindSpeedAvgMPH,GustSpeedMaxMPH,PrecipitationSumIn
2012-4-15,42,31,22,27,22,18,89,69,43,30.40,30.05,21,6,26,0.53
2012-4-16,45,32,20,26,19,14,92,64,34,30.58,30.40,19,3,21,0.04
2012-4-17,56,34,14,25,17,11,92,56,22,30.65,30.39,16,3,29,0.00
2012-4-18,61,42,17,32,20,13,88,48,17,30.45,30.12,23,4,28,0.00
2012-4-19,54,40,32,35,29,18,94,68,26,30.32,30.04,22,4,28,0.09
2012-4-20,58,42,27,35,27,23,96,62,29,30.42,30.32,16,3,19,0.11
2012-4-21,67,45,22,30,21,13,90,48,13,30.45,30.28,15,3,18,0.00
2012-4-22,72,48,24,26,19,4,83,41,8,30.44,30.22,13,3,17,0.00
2012-4-23,73,50,26,27,19,6,72,36,8,30.39,30.12,13,2,19,0.00
2012-4-24,72,51,27,26,18,4,73,33,8,30.22,29.96,16,4,25,0.00
2012-4-25,67,51,29,34,23,11,60,37,12,30.18,30.04,17,5,24,0.00
2012-4-26,66,48,35,41,32,25,87,59,22,30.16,29.72,22,4,33,0.16
2012-4-27,54,43,31,39,27,12,88,57,21,30.10,29.83,25,6,28,0.19
2012-4-28,54,40,28,21,18,13,72,44,22,30.19,29.99,19,4,24,0.00
2012-4-29,57,40,22,23,18,12,86,47,19,30.27,30.09,21,4,24,0.00
2012-4-30,63,42,21,21,16,7,83,42,11,30.31,30.05,17,4,22,0.00
2012-5-1,64,47,28,32,22,14,70,41,21,30.07,29.86,19,4,25,0.00
2012-5-2,66,48,28,31,25,21,79,45,20,30.05,29.88,19,4,26,0.00
2012-5-3,70,51,27,30,23,15,80,40,13,30.14,29.95,17,3,21,0.00
2012-5-4,74,53,29,27,18,2,77,34,6,30.11,29.92,14,3,20,0.00
2012-5-5,69,50,29,27,17,5,70,33,8,30.08,29.91,20,4,26,0.00
2012-5-6,65,47,26,26,18,5,75,37,10,30.12,29.97,15,3,26,0.00
2012-5-7,45,44,44,25,23,21,47,43,39,30.10,30.08,4,2,6,0.00
2012-5-27,54,45,24,17,8,-2,51,24,11,30.25,29.90,26,7,33,0.00
2012-5-28,63,44,22,24,16,9,74,36,13,30.32,30.17,17,4,24,0.00
2012-5-29,71,51,26,24,15,5,75,30,9,30.33,30.05,18,4,27,0.00
2012-5-30,69,52,28,29,18,7,67,30,11,30.16,30.03,21,4,24,0.00
2012-5-31,72,54,32,34,26,18,74,37,16,30.18,29.99,15,4,23,0.00
2012-6-1,75,57,35,38,30,25,79,41,16,30.06,29.90,15,4,22,0.00
2012-6-2,72,57,37,40,31,24,80,41,17,29.99,29.87,17,3,26,0.00
2012-6-3,79,62,38,36,29,16,77,35,10,30.01,29.89,15,3,21,0.00
2012-6-4,75,58,39,41,34,27,77,43,18,30.06,29.92,16,3,22,0.00
2012-6-5,77,59,39,40,29,10,85,39,8,29.95,29.71,18,5,24,0.00
2012-6-6,76,57,34,34,23,14,65,31,11,29.95,29.77,13,3,18,0.00
2012-6-7,75,57,33,33,22,13,70,29,11,30.02,29.90,17,4,18,0.00
2012-6-8,80,58,34,34,23,16,69,30,10,30.06,29.76,15,3,23,0.00
2012-6-9,79,59,35,32,22,8,66,28,7,29.83,29.60,17,3,26,0.00
2012-6-10,66,53,35,29,18,7,56,27,12,30.12,29.69,22,5,28,0.00
2012-6-11,71,50,26,26,14,7,71,29,10,30.32,30.12,15,3,22,0.00
2012-6-12,75,54,30,28,18,11,65,30,9,30.32,30.01,16,4,23,0.00
2012-6-13,78,58,32,36,18,6,77,26,7,30.10,29.83,14,3,22,0.00
2012-6-14,79,57,32,38,20,4,65,28,6,29.99,29.86,12,2,23,0.00
2012-6-15,76,59,35,35,22,6,64,28,7,30.01,29.88,16,2,23,0.00
2012-6-16,76,61,46,36,25,19,49,28,12,30.07,29.95,24,3,28,0.00
2012-6-17,78,59,35,35,26,18,74,34,12,30.12,29.88,23,5,29,0.00
2012-6-18,80,61,36,32,22,14,69,28,9,29.93,29.68,18,4,23,0.00
2012-6-19,81,61,34,29,20,13,59,25,8,29.85,29.67,19,4,21,0.00
2012-6-20,77,59,37,30,22,14,65,29,10,30.09,29.78,17,4,21,0.00
2012-6-21,82,61,34,37,22,8,70,29,6,30.17,29.95,15,3,21,0.00
2012-6-22,85,67,46,42,26,14,55,25,7,29.99,29.69,16,4,25,0.00
2012-6-23,84,65,41,42,28,22,63,28,11,29.94,29.79,11,2,18,0.00
2012-6-24,84,65,43,48,35,27,68,36,14,30.05,29.90,16,3,32,0.03
2012-6-25,86,65,42,50,34,11,75,38,9,30.07,29.85,13,2,18,0.00
2012-6-26,78,62,43,56,41,28,75,48,24,29.97,29.81,13,3,21,0.01
2012-6-27,74,64,53,54,46,41,72,52,34,30.04,29.91,12,3,23,0.05
2012-6-28,75,58,44,54,46,40,91,65,29,30.17,30.02,13,2,19,0.03
2012-6-29,80,61,40,50,41,33,96,55,18,30.26,30.00,19,3,31,0.03
2012-6-30,81,61,38,44,36,27,85,45,15,30.11,29.93,12,2,23,0.00
2012-7-1,84,63,40,46,35,24,79,40,12,30.05,29.85,12,2,18,0.00
2012-7-2,80,65,46,46,39,28,74,42,15,29.95,29.83,16,3,26,0.00
2012-7-3,79,61,43,46,41,35,82,52,21,29.99,29.84,12,2,24,0.00
2012-7-4,78,58,44,55,46,39,86,66,29,30.00,29.86,16,2,20,0.05
2012-7-5,75,61,50,56,50,46,89,69,38,30.04,29.87,12,3,17,0.02
2012-7-6,73,60,49,54,50,45,96,72,38,30.16,30.00,18,2,25,0.03
2012-7-7,67,58,52,54,51,48,95,78,51,30.22,30.12,10,2,13,0.07
2012-7-8,72,56,46,54,50,44,97,82,40,30.28,30.16,12,2,22,0.11
2012-7-9,78,61,47,53,47,36,98,66,23,30.27,30.09,13,3,17,0.02
2012-7-10,78,61,43,50,42,32,94,56,23,30.21,30.01,15,2,22,0.02
2012-7-11,81,59,41,52,43,38,89,61,25,30.20,29.99,17,3,18,0.01
2012-7-12,82,62,42,49,42,33,96,55,18,30.19,30.03,14,2,23,0.01
2012-7-13,75,59,43,52,44,39,89,61,33,30.15,30.03,15,2,22,0.01
2012-7-14,72,56,49,55,50,45,94,80,45,30.18,30.04,11,2,17,0.10
2012-7-15,68,54,42,57,49,41,98,83,60,30.25,30.08,14,1,20,0.30
2012-7-16,69,55,47,53,50,46,95,84,51,30.13,29.98,10,2,17,0.01
2012-7-17,74,58,42,52,44,40,98,64,32,30.17,30.04,9,2,18,0.01
2012-7-18,73,58,41,52,45,39,94,65,33,30.18,30.08,11,2,21,0.00
2012-7-19,84,62,43,53,44,22,95,61,11,30.27,30.02,12,2,17,0.09
2012-7-20,81,63,47,54,48,43,92,62,27,30.18,29.98,10,2,14,0.09
2012-7-21,80,61,46,55,47,39,90,64,24,30.21,30.03,11,2,13,0.08
2012-7-22,79,59,47,56,50,41,94,73,27,30.21,30.09,8,2,16,0.21
2012-7-23,77,61,44,57,46,41,96,62,29,30.22,30.03,8,2,15,0.00
2012-7-24,75,59,43,56,47,40,92,68,33,30.12,29.93,9,2,14,0.00
2012-7-25,76,62,48,52,46,39,93,59,29,30.05,29.93,14,4,20,0.00
2012-7-26,82,64,42,47,40,29,89,48,17,30.13,29.94,11,3,17,0.00
2012-7-27,72,59,52,54,49,43,95,70,38,30.22,29.99,13,2,20,0.12
2012-7-28,72,59,50,57,52,49,96,77,44,30.25,30.14,11,2,14,0.14
2012-7-29,76,62,51,58,52,48,93,72,39,30.20,30.04,10,2,19,0.28
2012-7-30,78,62,48,56,50,46,96,69,35,30.18,29.99,11,2,14,0.00
2012-7-31,77,60,47,54,49,45,96,69,36,30.22,30.01,10,2,17,0.04
2012-8-1,74,58,45,54,49,44,97,74,36,30.21,30.08,10,2,21,0.05
2012-8-2,73,58,44,54,47,42,95,70,37,30.17,30.02,12,2,19,0.08
2012-8-3,77,58,39,50,40,24,98,59,15,30.17,29.96,12,2,17,0.00
2012-8-4,80,61,40,44,34,17,90,45,10,30.17,30.03,14,2,17,0.00
2012-8-5,80,61,38,48,39,30,82,48,17,30.30,30.14,17,3,17,0.00
2012-8-6,81,60,46,53,46,39,95,67,24,30.27,30.05,8,2,13,0.41
2012-8-7,80,59,46,56,49,40,98,74,24,30.28,30.12,13,2,19,0.43
2012-8-8,83,62,43,54,41,26,97,56,13,30.34,30.13,8,2,13,0.00
2012-8-9,80,58,41,53,44,36,94,63,21,30.27,30.12,10,2,18,0.00
2012-8-10,77,58,42,52,46,40,94,68,29,30.25,30.08,14,3,24,0.01
2012-8-11,78,62,45,52,44,37,93,57,24,30.19,30.00,18,4,32,0.00
2012-8-12,80,62,42,48,42,30,93,53,18,30.16,30.00,13,3,17,0.00
2012-8-13,72,56,46,54,47,40,94,73,37,30.18,30.00,14,2,22,0.18
2012-8-14,69,54,41,53,46,40,98,75,38,30.21,30.06,8,1,11,0.18
2012-8-15,78,56,38,47,41,34,97,64,22,30.19,30.01,12,1,18,0.00
2012-8-16,79,60,40,46,39,29,93,54,16,30.19,30.00,12,2,15,0.00
2012-8-17,77,60,42,47,41,35,86,54,23,30.14,29.94,16,2,18,0.00
2012-8-18,79,60,40,46,39,29,93,53,16,30.11,29.90,12,2,20,0.00
2012-8-19,79,58,37,42,34,26,88,49,15,30.16,29.95,14,2,18,0.00
2012-8-20,67,54,44,54,44,33,96,71,46,30.18,30.01,9,1,15,0.07
2012-8-21,80,56,35,48,38,29,98,62,16,30.29,30.04,10,1,10,0.01
2012-8-22,70,56,44,52,44,36,88,67,39,30.12,29.98,12,2,13,0.00
2012-8-23,70,55,47,53,50,45,96,83,44,30.05,29.91,9,1,12,0.04
2012-8-24,67,56,49,52,49,44,97,80,49,30.10,29.93,11,2,19,0.29
2012-8-25,74,54,38,49,43,37,98,71,28,30.15,30.02,16,2,19,0.29
2012-8-26,75,55,36,48,42,35,98,68,26,30.28,30.15,14,1,20,0.00
2012-8-27,79,58,43,52,44,39,92,65,25,30.33,30.17,14,2,18,0.00
2012-8-28,80,58,40,51,44,38,95,64,26,30.35,30.14,15,2,24,0.00
2012-8-29,80,58,41,50,44,35,95,64,24,30.23,30.04,15,2,25,0.00
2012-8-30,77,59,40,47,42,38,94,59,27,30.14,29.96,12,2,14,0.00
2012-8-31,75,57,41,47,43,36,89,62,26,30.13,30.02,16,2,17,0.00
2012-9-1,72,56,38,52,45,35,95,70,39,30.25,30.10,18,2,24,0.01
2012-9-2,72,54,41,53,46,39,97,77,38,30.22,30.11,10,2,15,0.22
2012-9-3,75,57,43,53,43,33,98,67,23,30.29,30.13,12,2,17,0.01
2012-9-4,75,55,35,43,36,32,92,56,21,30.29,30.10,11,2,18,0.00
2012-9-5,74,54,33,34,26,14,85,44,11,30.28,30.11,12,2,22,0.00
2012-9-6,77,53,29,36,28,21,80,45,14,30.29,30.08,11,2,14,0.00
2012-9-7,71,56,42,49,40,33,93,61,26,30.27,30.11,16,3,21,0.02
2012-9-8,74,52,31,41,32,28,93,54,19,30.41,30.21,10,2,14,0.00
2012-9-9,77,56,34,42,33,24,91,50,17,30.38,30.09,9,2,13,0.00
2012-9-10,74,56,38,41,36,32,82,51,25,30.21,29.99,13,2,17,0.00
2012-9-11,68,54,43,51,44,36,94,70,42,30.06,29.93,14,2,22,0.16
2012-9-12,60,50,43,50,46,41,97,88,61,30.34,30.05,11,1,13,0.45
2012-9-13,67,49,36,45,37,29,97,69,24,30.54,30.34,12,2,15,0.00
2012-9-14,70,49,31,37,31,14,96,59,12,30.60,30.34,10,2,15,0.00
2012-9-15,72,49,29,34,29,19,95,55,14,30.49,30.27,10,2,16,0.00
2012-9-16,72,49,29,33,25,12,89,50,10,30.40,30.18,13,2,20,0.00
2012-9-17,62,43,30,38,28,23,83,58,24,30.36,30.18,13,2,25,0.00
2012-9-18,70,46,25,31,26,18,93,55,14,30.48,30.30,13,2,18,0.00
2012-9-19,72,47,27,30,22,1,88,47,7,30.43,30.25,12,2,17,0.00
2012-9-20,71,47,25,27,21,14,78,43,11,30.41,30.23,9,1,13,0.00
2012-9-21,74,49,26,28,23,15,81,43,11,30.43,30.22,10,2,13,0.00
2012-9-22,74,50,27,29,24,18,82,44,13,30.42,30.23,11,2,16,0.00
2012-9-23,71,49,28,37,28,21,78,48,20,30.43,30.26,12,2,19,0.00
2012-9-24,60,49,43,44,38,31,88,68,49,30.30,30.09,20,2,29,0.14
2012-9-25,55,44,34,46,39,33,97,84,60,30.23,30.05,15,2,21,0.28
2012-9-26,54,40,32,44,37,32,98,89,64,30.39,30.22,12,2,16,0.01
2012-9-27,57,44,34,44,37,32,94,77,46,30.40,30.29,11,2,16,0.01
2012-9-28,66,44,25,41,33,24,98,71,28,30.46,30.23,9,2,11,0.01
2012-9-29,66,46,28,38,31,15,97,63,14,30.40,30.22,15,2,18,0.00
2012-9-30,65,46,30,35,30,26,92,59,26,30.40,30.26,15,2,19,0.00
2012-10-1,66,45,27,34,29,25,93,60,23,30.45,30.27,12,2,19,0.00
2012-10-2,68,45,24,31,24,14,94,52,13,30.35,30.16,14,2,18,0.00
2012-10-3,69,46,24,30,22,17,84,45,14,30.27,30.10,18,3,25,0.00
2012-10-4,68,49,28,32,26,21,77,44,19,30.27,30.09,20,4,32,0.00
2012-10-5,62,52,34,30,19,11,51,29,14,30.09,29.92,20,6,25,0.00
2012-10-6,54,42,23,19,9,1,55,27,13,30.19,30.00,17,5,23,0.00
2012-10-7,52,32,14,12,3,-14,73,37,7,30.49,30.19,14,3,22,0.00
2012-10-8,60,34,11,9,4,-5,73,35,7,30.53,30.32,16,2,21,0.00
2012-10-9,62,39,17,21,15,7,71,42,17,30.41,30.25,17,3,25,0.00
2012-10-10,66,41,20,28,21,13,80,51,22,30.43,30.19,10,2,15,0.00
2012-10-11,70,46,21,37,25,15,88,50,14,30.37,30.15,14,2,19,0.00
2012-10-12,54,43,29,43,36,26,93,77,49,30.22,29.90,14,3,24,0.21
2012-10-13,45,35,24,35,29,22,96,82,62,30.55,30.16,16,2,20,0.01
2012-10-14,58,41,27,37,29,23,96,68,27,30.62,30.43,11,2,13,0.00
2012-10-15,63,38,19,32,23,16,95,62,20,30.53,30.30,15,2,21,0.00
2012-10-16,65,45,20,32,23,16,88,50,17,30.37,29.88,22,5,30,0.00
2012-10-17,52,43,25,37,11,-12,68,34,7,30.25,29.89,20,7,27,0.00
2012-10-18,57,36,14,16,12,6,79,43,18,30.51,30.26,19,4,21,0.00
2012-10-19,65,38,15,22,15,10,86,48,12,30.53,30.25,14,2,19,0.00
2012-10-20,69,39,17,20,13,10,82,43,11,30.32,30.03,13,2,19,0.00
2012-10-21,62,38,16,26,18,8,78,49,23,30.23,30.06,11,2,15,0.00
2012-10-22,63,38,18,28,20,15,91,54,19,30.21,30.01,12,2,17,0.00
2012-10-23,65,46,23,28,19,6,80,42,10,30.14,29.95,15,4,23,0.00
2012-10-24,61,44,21,30,22,6,94,48,15,30.04,29.62,24,6,39,0.00
2012-10-25,36,25,12,23,17,10,94,74,45,30.63,30.04,16,3,19,0.08
2012-10-26,38,21,5,17,9,0,91,65,21,30.83,30.62,6,1,10,0.01
2012-10-27,46,27,12,16,11,6,85,56,21,30.71,30.53,16,2,25,0.00
2012-10-28,54,32,13,26,18,9,88,61,28,30.65,30.45,13,2,20,0.00
2012-10-29,59,35,16,27,21,14,94,63,24,30.63,30.45,13,2,18,0.00
2012-10-30,60,35,16,26,18,13,94,59,18,30.61,30.41,9,1,12,0.00
2012-10-31,62,34,15,23,15,8,90,54,14,30.62,30.41,7,1,9,0.00
2012-11-1,59,34,14,19,14,9,85,51,15,30.55,30.31,8,1,12,0.00
2012-11-2,53,32,17,17,12,8,78,48,17,30.50,30.33,8,1,11,0.00
2012-11-3,55,30,11,14,10,5,83,50,16,30.67,30.49,13,2,16,0.00
2012-11-4,55,30,12,19,13,8,84,54,22,30.74,30.60,14,2,18,0.00
2012-11-5,57,34,15,27,19,10,85,58,29,30.75,30.55,13,2,17,0.00
2012-11-6,62,34,15,23,16,12,92,57,15,30.72,30.53,10,1,14,0.00
2012-11-7,62,33,12,19,13,7,85,51,15,30.65,30.35,10,1,16,0.00
2012-11-8,60,36,13,19,13,8,82,45,16,30.44,30.09,15,2,19,0.00
2012-11-9,51,42,31,34,28,16,86,61,33,30.09,29.71,16,5,24,0.00
2012-11-10,37,25,1,30,15,-4,93,70,23,30.14,29.62,15,3,21,0.12
2012-11-11,19,9,-3,9,2,-7,89,73,49,31.07,30.15,21,4,24,0.00
2012-11-12,32,9,-10,15,0,-14,88,72,36,31.29,31.07,3,1,4,0.00
2012-11-13,40,19,3,19,10,0,91,73,36,31.10,30.82,8,1,11,0.00
2012-11-14,44,19,2,19,9,-1,91,69,28,30.97,30.72,6,1,8,0.00
2012-11-15,47,23,5,15,10,2,88,63,22,30.90,30.74,8,1,12,0.00
2012-11-16,46,25,10,22,14,6,87,67,31,30.85,30.60,10,1,10,0.00
2012-11-17,51,29,13,25,18,10,92,68,33,30.67,30.43,9,1,11,0.00
2012-11-18,48,29,16,27,20,13,92,71,36,30.60,30.38,9,2,15,0.00
2012-11-19,49,27,12,24,17,9,93,70,32,30.79,30.60,9,1,11,0.00
2012-11-20,50,26,11,22,14,8,93,67,23,30.84,30.63,7,1,9,0.00
2012-11-21,54,26,9,19,12,6,93,62,15,30.72,30.47,9,1,12,0.00
2012-11-22,51,27,10,19,10,3,85,55,16,30.85,30.55,13,2,18,0.00
2012-11-23,51,26,9,16,10,4,87,57,22,30.95,30.80,9,1,15,0.00
2012-11-24,53,25,7,14,9,3,90,57,16,30.87,30.58,11,1,18,0.00
2012-11-25,52,24,5,13,7,1,87,55,17,30.60,30.34,13,1,17,0.00
2012-11-26,49,23,7,14,2,-17,86,50,6,30.81,30.49,13,2,16,0.00
2012-11-27,48,18,-1,10,0,-9,77,50,14,30.96,30.80,7,1,8,0.00
2012-11-28,44,19,4,13,6,-1,84,60,24,30.97,30.72,4,0,5,0.00
2012-11-29,50,25,8,23,14,4,89,67,34,30.81,30.56,8,1,11,0.00
2012-11-30,50,26,10,22,15,8,93,68,30,30.67,30.44,7,1,11,0.00
2012-12-1,52,32,21,24,19,15,81,60,28,30.51,30.33,11,2,12,0.00
2012-12-2,49,27,11,22,15,8,91,66,29,30.54,30.31,11,1,14,0.00
2012-12-3,45,32,16,31,22,13,92,70,49,30.62,30.32,13,3,18,0.00
2012-12-4,46,22,7,18,11,4,94,66,25,30.92,30.62,7,1,9,0.00
2012-12-5,51,27,10,20,13,6,86,59,25,30.87,30.44,10,1,11,0.00
2012-12-6,39,30,22,33,25,16,95,80,57,30.44,30.17,4,1,7,0.01
2012-12-7,40,28,17,25,20,13,95,74,46,30.28,30.18,15,2,18,0.02
2012-12-8,42,26,10,21,13,6,90,63,29,30.27,30.11,24,5,29,0.00
2012-12-9,25,11,-11,18,4,-15,86,74,37,30.77,30.10,15,4,19,0.00
2012-12-10,14,3,-13,11,-1,-17,90,82,66,30.90,30.76,5,0,6,0.00
2012-12-11,26,7,-6,14,0,-9,90,77,45,30.81,30.65,9,1,15,0.08
2012-12-12,26,5,-12,14,0,-16,89,79,54,30.90,30.76,7,1,10,0.02
2012-12-13,30,11,-5,19,6,-9,92,81,59,30.88,30.61,5,1,6,0.02
2012-12-14,33,18,3,26,15,-1,92,85,62,30.63,30.04,6,1,10,0.00
2012-12-15,31,20,8,23,16,6,93,87,62,30.31,30.16,9,1,11,0.02
2012-12-16,27,15,5,17,9,2,92,80,56,30.51,30.18,13,2,18,0.05
2012-12-17,36,18,8,21,11,3,90,74,50,30.54,30.29,11,2,18,0.01
2012-12-18,32,16,0,20,10,-3,92,79,55,30.37,30.04,7,0,8,0.00
2012-12-19,20,10,-12,18,4,-18,94,77,61,30.95,29.92,18,3,23,0.00
2012-12-20,14,-8,-23,-1,-16,-28,83,71,41,31.58,30.95,3,0,4,0.00
2012-12-21,19,-5,-20,5,-11,-25,86,75,52,31.59,31.27,3,0,4,0.00
2012-12-22,18,-3,-16,7,-8,-21,88,78,59,31.33,31.06,5,1,8,0.00
2012-12-23,27,7,-12,13,0,-17,86,77,53,31.13,30.76,4,1,6,0.00
2012-12-24,28,18,9,21,14,6,93,85,73,30.76,30.12,5,1,9,0.00
2012-12-25,24,9,-6,16,4,-10,91,80,56,30.71,30.19,6,1,9,0.01
2012-12-26,22,8,-6,15,4,-10,91,83,64,30.73,30.30,9,1,11,0.01
2012-12-27,24,10,-1,13,5,-4,90,81,57,30.44,30.25,5,0,10,0.00
2012-12-28,18,5,-15,6,-2,-20,88,73,48,30.97,30.44,12,2,19,0.00
2012-12-29,11,-9,-24,-1,-15,-29,85,76,58,31.26,30.98,7,1,8,0.00
2012-12-30,19,-1,-16,7,-7,-20,89,77,53,31.14,30.71,4,0,6,0.00
2012-12-31,23,7,-4,15,2,-9,89,81,63,30.71,30.46,8,1,11,0.00
2013-1-1,17,-2,-16,5,-8,-20,86,76,52,31.14,30.69,10,1,12,0.00